Villa Grove, CO

1:45 PM MDT on September 30, 2016 (GMT -0600)
Monarch Pass

Weather History for KMYP - November, 2013

Change the Weather History Date:

Saturday, November 16, 2013

  Actual Average (KGUC) Record (KGUC)
Temperature  
Mean Temperature 19 °F -  
Max Temperature 21 °F 39 °F 57 °F (1999)
Min Temperature 17 °F 12 °F -2 °F (2000)
Degree Days  
Heating Degree Days 46    
Moisture  
Dew Point 17 °F    
Average Humidity 92    
Maximum Humidity 93    
Minimum Humidity 86    
Precipitation  
Precipitation 0.00 in - - ()
Sea Level Pressure  
Sea Level Pressure 29.69 in    
Wind  
Wind Speed - (North)    
Max Wind Speed -    
Max Gust Speed -    
Averages and records for this station are not official NWS values.
T = Trace of Precipitation, MM = Missing Value Source: NWS Daily Summary

Daily Weather History Graph

Daily Weather History Graph

Search for Another Location

Airport or City:

Trip Planner

Search our weather history database for the weather conditions in past years. The results will help you decide how hot, cold, wet, or windy it might be!

Date:

Astronomy

Nov. 16, 2013 Rise Set
Actual Time 6:48 AM MST 4:51 PM MST
Civil Twilight 6:20 AM MST 5:19 PM MST
Nautical Twilight 5:47 AM MST 5:51 PM MST
Astronomical Twilight 5:16 AM MST 6:23 PM MST
Moon 4:28 PM MST (11/16) 5:48 AM MST (11/16)
Length of Visible Light 10h 59m
Length of Day
10h 02m
Waxing Gibbous, 99% of the Moon is Illuminated
Nov 16
Waxing Gibbous
Nov 17
Full
Nov 25
Last Quarter
Dec 2
New
Dec 9
First Quarter

Hourly Weather History & Observations

Time (MST) Temp. Dew Point Humidity Pressure Visibility Wind Dir Wind Speed Gust Speed Precip Events Conditions
12:16 AM 21.2 °F 19.4 °F 93% 29.70 in 0.2 mi North - - N/A Snow Heavy Snow
12:36 AM 19.4 °F 17.6 °F 93% 29.71 in 0.2 mi North - - N/A Snow Heavy Snow
12:56 AM 19.4 °F 17.6 °F 93% 29.71 in 0.2 mi North - - N/A Snow Heavy Snow
1:16 AM 19.4 °F 17.6 °F 93% 29.70 in 0.2 mi North - - N/A Snow Heavy Snow
1:36 AM 19.4 °F 17.6 °F 93% 29.70 in 0.2 mi North - - N/A Snow Heavy Snow
1:56 AM 19.4 °F 17.6 °F 93% 29.70 in 0.2 mi North - - N/A Snow Heavy Snow
2:16 AM 19.4 °F 17.6 °F 93% 29.70 in 0.2 mi North - - N/A Snow Light Snow
2:18 AM 19.4 °F 17.6 °F 93% 29.67 in 0.2 mi North - - N/A Snow Heavy Snow
2:56 AM 19.4 °F 17.6 °F 93% 29.71 in 0.2 mi North - - N/A Snow Light Snow
3:16 AM 19.4 °F 17.6 °F 93% 29.72 in 0.2 mi North - - N/A Snow Heavy Snow
3:36 AM 19.4 °F 17.6 °F 93% 29.73 in 0.2 mi North - - N/A Fog Light Freezing Fog
3:56 AM 19.4 °F 17.6 °F 93% 29.73 in 0.2 mi North - - N/A Snow Light Snow
4:16 AM 19.4 °F 17.6 °F 93% 29.72 in 0.5 mi North - - N/A Snow Light Snow
4:36 AM 19.4 °F 17.6 °F 93% 29.70 in 0.2 mi North - - N/A Snow Light Snow
4:56 AM 19.4 °F 17.6 °F 93% 29.70 in 0.2 mi North - - N/A   Overcast
5:16 AM 19.4 °F 17.6 °F 93% 29.70 in 0.2 mi North - - N/A Fog Light Freezing Fog
5:36 AM 19.4 °F 15.8 °F 86% 29.72 in 0.5 mi North - - N/A Snow Light Snow
5:56 AM 19.4 °F 15.8 °F 86% 29.70 in 0.2 mi North - - N/A Fog Light Freezing Fog
6:16 AM 19.4 °F 15.8 °F 86% 29.68 in 0.2 mi North - - N/A Fog Light Freezing Fog
6:36 AM 17.6 °F 15.8 °F 93% 29.71 in 0.2 mi North - - N/A Fog Light Freezing Fog
6:56 AM 17.6 °F 15.8 °F 93% 29.70 in - North - - N/A   Overcast
7:16 AM 17.6 °F 15.8 °F 93% 29.72 in - North - - N/A   Overcast
7:36 AM 17.6 °F 15.8 °F 93% 29.73 in - North - - N/A   Overcast
7:56 AM 17.6 °F 15.8 °F 93% 29.73 in - North - - N/A   Overcast
8:16 AM 19.4 °F 15.8 °F 86% 29.75 in - North - - N/A   Overcast
8:36 AM 19.4 °F 15.8 °F 86% 29.75 in - North - - N/A   Overcast
8:56 AM 19.4 °F 15.8 °F 86% 29.75 in - North - - N/A   Overcast
9:16 AM 19.4 °F 15.8 °F 86% 29.76 in - North - - N/A   Overcast
9:36 AM 19.4 °F 17.6 °F 93% 29.76 in - North - - N/A   Overcast
9:56 AM 19.4 °F 17.6 °F 93% 29.76 in - North - - N/A   Overcast
10:16 AM 19.4 °F 17.6 °F 93% 29.78 in - North - - N/A   Overcast
10:36 AM 19.4 °F 17.6 °F 93% 29.78 in - North - - N/A   Overcast
10:56 AM 19.4 °F 17.6 °F 93% 29.78 in - North - - N/A   Unknown
11:16 AM 19.4 °F 15.8 °F 86% 29.76 in - North - - N/A   Unknown
11:36 AM 19.4 °F 17.6 °F 93% 29.76 in - North - - N/A   Unknown
11:56 AM 19.4 °F 17.6 °F 93% 29.74 in - North - - N/A   Overcast
12:16 PM 19.4 °F 17.6 °F 93% 29.73 in 5.0 mi North - - N/A Snow Light Snow
12:36 PM 19.4 °F 17.6 °F 93% 29.72 in 1.8 mi North - - N/A Snow Light Snow
12:56 PM 19.4 °F 17.6 °F 93% 29.71 in 0.5 mi North - - N/A Snow Snow
1:16 PM 19.4 °F 17.6 °F 93% 29.71 in 0.2 mi North - - N/A Snow Heavy Snow
1:36 PM 19.4 °F 17.6 °F 93% 29.70 in 0.2 mi North - - N/A Snow Heavy Snow
1:56 PM 19.4 °F 17.6 °F 93% 29.70 in 0.2 mi North - - N/A Snow Heavy Snow
2:16 PM 19.4 °F 17.6 °F 93% 29.69 in 0.2 mi North - - N/A Snow Heavy Snow
2:36 PM 19.4 °F 17.6 °F 93% 29.68 in 0.2 mi North - - N/A Snow Heavy Snow
2:56 PM 19.4 °F 17.6 °F 93% 29.67 in 0.2 mi North - - N/A Snow Heavy Snow
3:16 PM 19.4 °F 17.6 °F 93% 29.67 in 0.2 mi North - - N/A Snow Heavy Snow
3:36 PM 19.4 °F 17.6 °F 93% 29.66 in 0.2 mi North - - N/A Snow Heavy Snow
3:56 PM 19.4 °F 17.6 °F 93% 29.64 in 0.2 mi North - - N/A Snow Heavy Snow
4:16 PM 19.4 °F 17.6 °F 93% 29.65 in 0.2 mi North - - N/A Snow Heavy Snow
4:36 PM 19.4 °F 17.6 °F 93% 29.64 in 0.2 mi North - - N/A Snow Heavy Snow
4:56 PM 19.4 °F 17.6 °F 93% 29.63 in 0.2 mi North - - N/A Snow Heavy Snow
5:16 PM 19.4 °F 17.6 °F 93% 29.64 in 0.2 mi North - - N/A Snow Heavy Snow
5:36 PM 19.4 °F 17.6 °F 93% 29.61 in 0.2 mi North - - N/A Snow Heavy Snow
5:56 PM 19.4 °F 17.6 °F 93% 29.63 in 0.2 mi North - - N/A Snow Heavy Snow
6:16 PM 19.4 °F 17.6 °F 93% 29.61 in 0.2 mi North - - N/A Snow Heavy Snow
6:36 PM 21.2 °F 17.6 °F 86% 29.61 in 0.2 mi North - - N/A Snow Heavy Snow
6:56 PM 21.2 °F 19.4 °F 93% 29.60 in 0.2 mi North - - N/A Snow Heavy Snow
7:16 PM 21.2 °F 19.4 °F 93% 29.61 in 0.2 mi North - - N/A Snow Heavy Snow
7:36 PM 21.2 °F 19.4 °F 93% 29.60 in 0.2 mi North - - N/A Snow Heavy Snow
7:56 PM 21.2 °F 19.4 °F 93% 29.60 in 0.2 mi North - - N/A Snow Heavy Snow
8:16 PM 21.2 °F 19.4 °F 93% 29.56 in 0.2 mi North - - N/A Snow Heavy Snow
8:36 PM 21.2 °F 19.4 °F 93% 29.62 in 0.2 mi North - - N/A Snow Heavy Snow
8:56 PM 21.2 °F 19.4 °F 93% 29.63 in 0.2 mi North - - N/A Snow Heavy Snow
9:16 PM 21.2 °F 19.4 °F 93% 29.66 in 0.2 mi North - - N/A Snow Heavy Snow
9:36 PM 19.4 °F 17.6 °F 93% 29.69 in 0.2 mi North - - N/A Snow Heavy Snow
9:56 PM 19.4 °F 17.6 °F 93% 29.67 in 0.2 mi North - - N/A Snow Heavy Snow
10:16 PM 19.4 °F 17.6 °F 93% 29.67 in 0.2 mi North - - N/A Snow Heavy Snow
10:36 PM 19.4 °F 17.6 °F 93% 29.68 in 0.2 mi North - - N/A Snow Heavy Snow
10:56 PM 19.4 °F 17.6 °F 93% 29.67 in 0.2 mi North - - N/A Snow Heavy Snow
11:16 PM 19.4 °F 15.8 °F 86% 29.66 in 0.2 mi North - - N/A Snow Heavy Snow
11:36 PM 19.4 °F 15.8 °F 86% 29.66 in 0.2 mi North - - N/A Snow Heavy Snow
11:56 PM 19.4 °F 15.8 °F 86% 29.65 in 0.2 mi North - - N/A Snow Heavy Snow